#timestamp,LO_Frequency,Hit,StdDev 
1579611615.2,286047002.2,N
1579611635.1,286047000.7,N
1579611636.0,286047000.7,N
1579611655.8,286047000.1,N
1579611675.6,286047002.6,N
1579611695.5,286047002.4,N
1579611715.3,286046999.7,N
1579611735.2,286047002.8,N
1579611755.9,286047002.3,N
1579611775.7,286047002.5,N
1579611795.6,286047004.2,N
1579611815.4,286047004.3,N
1579611835.2,286047000.4,N
1579611855.1,286046998.1,N
1579611856.0,286046998.1,N
1579611875.8,286046999.5,N
1579611895.7,286046999.1,N
1579611915.5,286046996.7,N
1579611935.3,286046997.2,N
1579611955.2,286046997.6,N
1579611975.0,286046994.9,N
1579611975.9,286046994.9,N
1579611995.8,286046995.3,N
1579612015.6,286046995.3,N
1579612035.4,286046996.0,N
1579612055.3,286046996.3,N
1579612075.1,286046996.7,N
1579612095.8,286046998.9,N
1579612115.7,286047001.2,N
1579612135.5,286047000.2,N
1579612155.4,286047002.5,N
1579612175.2,286047003.9,N
1579612195.0,286047002.1,N
1579612195.9,286047002.1,N
1579612215.8,286047004.4,N
1579612235.6,286047004.3,N
1579612255.4,286047002.6,N
1579612275.3,286047001.5,N
1579612295.1,286047001.4,N
1579612315.9,286047004.3,N
1579612335.7,286047003.6,N
1579612355.5,286047003.3,N
1579612375.4,286047006.0,N
1579612395.2,286047005.1,N
1579612415.0,286047002.9,N
1579612415.9,286047002.9,N
1579612435.8,286047004.8,N
1579612455.6,286047007.5,N
1579612475.5,286047009.2,N
1579612495.3,286047009.2,N
1579612515.1,286047009.2,N
1579612535.9,286047007.5,N
1579612555.7,286047007.5,N
1579612575.6,286047007.1,N
1579612595.4,286047005.1,N
1579612615.2,286047005.4,N
1579612635.1,286047005.3,N
1579612636.0,286047005.3,N
1579612655.8,286047004.6,N
1579612675.7,286047004.5,N
1579612695.5,286047004.9,N
1579612715.3,286047007.1,Y
1579612735.2,286047002.7,P
1579612755.0,286046999.7,N
1579612755.9,286046999.7,N
1579612775.8,286047002.5,N
1579612795.6,286047001.5,N
1579612815.4,286047002.4,N
1579612835.3,286047001.6,N
1579612855.1,286047002.9,N
1579612875.8,286047003.2,N
1579612895.7,286047004.3,N
1579612915.5,286047006.0,Y
1579612935.4,286047001.9,P
1579612955.2,286047003.5,P
1579612975.1,286047004.8,P
1579612976.0,286047004.8,Y
1579612995.8,286046999.8,P
1579613015.6,286047000.7,N
1579613035.5,286046999.2,N
1579613055.3,286046998.7,N
1579613075.1,286046998.5,N
1579613095.9,286046998.3,N
1579613115.7,286046998.9,N
1579613135.6,286046999.8,N
1579613155.4,286047001.1,N
1579613175.2,286047000.3,N
1579613195.1,286046998.1,N
1579613196.0,286046998.1,N
1579613215.8,286046999.5,N
1579613235.6,286046996.6,N
1579613255.5,286046997.9,N
1579613275.3,286046996.6,N
1579613295.2,286046998.8,N
1579613315.9,286046998.7,N
1579613335.7,286047000.7,N
1579613355.6,286047001.1,N
1579613375.4,286047000.4,N
1579613395.2,286047000.9,N
1579613415.1,286046999.8,N
1579613416.0,286046999.8,N
1579613435.8,286047000.9,N
1579613455.7,286047001.2,N
1579613475.5,286047003.7,N
1579613495.3,286047003.1,N
1579613515.2,286047002.5,N
1579613535.0,286046999.8,N
1579613535.9,286046999.8,N
1579613555.8,286046999.9,N
1579613575.6,286046998.1,N
1579613595.4,286046999.8,N
1579613615.3,286046999.8,N
1579613635.1,286047002.6,N
1579613655.9,286047003.9,N
1579613675.7,286047003.4,N
1579613695.5,286047004.0,N
1579613715.4,286047003.9,N
1579613735.2,286047003.7,N
1579613755.1,286047005.9,N
1579613756.0,286047005.9,N
1579613775.8,286047001.8,N
1579613795.6,286047004.4,N
1579613815.5,286047003.2,N
1579613835.3,286047003.5,N
1579613855.1,286047003.1,N
1579613875.9,286047004.2,N
1579613895.7,286047005.1,N
1579613915.6,286047003.3,N
1579613935.4,286047003.1,N
1579613955.2,286047006.0,N
1579613975.1,286047006.0,N
1579613976.0,286047006.0,N
1579613995.8,286047003.3,N
1579614015.7,286047003.3,N
1579614065.5,286047003.0,E
1579614075.4,286047001.6,N
1579614095.3,286047001.0,P
1579614115.1,286047001.2,P
1579614135.9,286046999.1,Y
1579614155.7,286046996.6,P
1579614175.5,286046997.1,N
1579614195.4,286046998.8,N
1579614215.2,286046999.5,N
1579614235.1,286046999.2,N
1579614236.0,286046999.2,N
1579614255.8,286046999.4,N
1579614275.6,286046996.8,N
1579614295.5,286046999.5,N
1579614315.3,286047000.9,N
1579614335.1,286047002.8,N
1579614355.9,286047000.8,N
1579614375.7,286046996.6,N
1579614395.6,286047000.6,N
1579614415.4,286046999.3,N
1579614435.2,286046999.3,N
1579614455.1,286046997.0,N
1579614456.0,286046997.0,N
1579614475.8,286046997.3,N
1579614495.7,286046999.0,N
1579614515.5,286047000.3,N
1579614535.3,286047000.7,N
1579614555.2,286046998.7,N
1579614575.0,286047000.6,N
1579614575.9,286047000.6,N
1579614595.8,286046999.9,N
1579614615.6,286047000.6,N
1579614635.4,286047000.0,N
1579614655.3,286046999.8,N
1579614675.1,286047000.1,N
1579614695.8,286046998.2,N
1579614715.7,286046999.8,N
1579614735.5,286047004.3,Y
1579614755.4,286047003.6,P
1579614775.2,286047001.7,N
1579614795.0,286047002.1,N
1579614795.9,286047002.1,N
1579614815.8,286046999.7,N
1579614835.6,286047002.6,N
1579614855.4,286047000.2,N
1579614875.3,286047002.6,N
1579614895.1,286047001.6,N
1579614915.9,286047000.3,N
1579614935.7,286046998.2,N
1579614955.5,286047000.8,N
1579614975.4,286046998.9,N
1579614995.2,286047001.0,N
1579615015.0,286047000.3,N
1579615016.0,286047000.3,N
1579615035.8,286046998.1,N
1579615055.6,286047002.2,N
1579615075.5,286047002.4,N
1579615095.3,286046999.7,N
1579615115.1,286047000.8,N
1579615135.9,286047000.2,N
1579615155.7,286047003.7,N
1579615175.5,286047003.2,N
1579615195.4,286047004.3,N
